User: anonymous   Login
Location: Unspecified
(0.0000°N, 0.0000°E)
Time: 05:39:57
(UTC+00:00)
Language:

DICE 2 - Orbit

View from above orbital plane
View from above orbital plane
View from above satellite
View from above satellite

Ground track
Ground track

The orbit data is extracted from the following two-line orbital elements,

1 37852U 11061C   19083.65730980  .00000848  00000-0  50987-4 0  9996
2 37852 101.7294 298.7894 0165355 326.2153  32.8608 15.06127090403954
Epoch (UTC): 24 March 2019 15:46:31
Eccentricity: 0.0165355
inclination: 101.7294°
perigee height: 433 km
apogee height: 662 km
right ascension of ascending node: 298.7894°
argument of perigee: 326.2153°
revolutions per day: 15.06127090
mean anomaly at epoch: 32.8608°
orbit number at epoch: 40395

The dashed part of the orbit path shows where the satellite is in the earth's shadow,  

DLR